| time (UTC) | temp F | wind direction | speed MPH | gust MPH | rain 1hr in | rain 24hr in | rain mn in | humidity % | barometer mb |
| 20260831181013 | 74 | 247 | 0.0 | 3.0 | 0.00 | 0.00 | 0.00 | 51 | 19.3 |
| 20260831180020 | 75 | 225 | 2.0 | 5.0 | 0.00 | 0.00 | 0.00 | 50 | 19.2 |
| 20260831175013 | 75 | 225 | 1.0 | 4.0 | 0.00 | 0.00 | 0.00 | 49 | 19.2 |
| 20260831174013 | 76 | 247 | 4.0 | 10.0 | 0.00 | 0.00 | 0.00 | 47 | 19.1 |
| 20260831173013 | 76 | 247 | 3.0 | 8.0 | 0.00 | 0.00 | 0.00 | 47 | 19.1 |
| 20260831171013 | 77 | 247 | 5.0 | 9.0 | 0.00 | 0.00 | 0.00 | 45 | 19.0 |
| 20260831170016 | 78 | 225 | 6.0 | 12.0 | 0.00 | 0.00 | 0.00 | 45 | 19.1 |
| 20260831165013 | 78 | 247 | 5.0 | 16.0 | 0.00 | 0.00 | 0.00 | 45 | 19.1 |
| 20260831164013 | 78 | 225 | 7.0 | 13.0 | 0.00 | 0.00 | 0.00 | 44 | 19.1 |
| 20260831163015 | 78 | 225 | 7.0 | 13.0 | 0.00 | 0.00 | 0.00 | 44 | 19.1 |
| 20260831161013 | 79 | 225 | 5.0 | 10.0 | 0.00 | 0.00 | 0.00 | 46 | 19.0 |
| 20260831160014 | 78 | 225 | 7.0 | 12.0 | 0.00 | 0.00 | 0.00 | 45 | 19.1 |
| 20260831155013 | 79 | 225 | 6.0 | 12.0 | 0.00 | 0.00 | 0.00 | 46 | 19.1 |
| 20260831154013 | 79 | 225 | 7.0 | 17.0 | 0.00 | 0.00 | 0.00 | 46 | 19.2 |
| 20260831153013 | 79 | 225 | 8.0 | 16.0 | 0.00 | 0.00 | 0.00 | 45 | 19.2 |
| 20260831151015 | 79 | 225 | 6.0 | 13.0 | 0.00 | 0.00 | 0.00 | 47 | 19.2 |
| 20260831150014 | 79 | 225 | 9.0 | 16.0 | 0.00 | 0.00 | 0.00 | 47 | 19.2 |
| 20260831145017 | 79 | 225 | 7.0 | 11.0 | 0.00 | 0.00 | 0.00 | 47 | 19.2 |
| 20260831144013 | 79 | 225 | 9.0 | 18.0 | 0.00 | 0.00 | 0.00 | 48 | 19.2 |
| 20260831143013 | 78 | 225 | 11.0 | 19.0 | 0.00 | 0.00 | 0.00 | 48 | 19.2 |
| 20260831142013 | 80 | 225 | 8.0 | 16.0 | 0.00 | 0.00 | 0.00 | 48 | 19.3 |
| 20260831141013 | 79 | 225 | 6.0 | 13.0 | 0.00 | 0.00 | 0.00 | 49 | 19.2 |
| 20260831140014 | 79 | 225 | 8.0 | 13.0 | 0.00 | 0.00 | 0.00 | 48 | 19.3 |
| 20260831135013 | 77 | 225 | 7.0 | 15.0 | 0.00 | 0.00 | 0.00 | 50 | 19.3 |
| 20260831134013 | 78 | 225 | 9.0 | 15.0 | 0.00 | 0.00 | 0.00 | 49 | 19.3 |
| 20260831133013 | 78 | 225 | 7.0 | 13.0 | 0.00 | 0.00 | 0.00 | 49 | 19.3 |
| 20260831132013 | 79 | 225 | 6.0 | 13.0 | 0.00 | 0.00 | 0.00 | 48 | 19.4 |
| 20260831131013 | 78 | 247 | 10.0 | 18.0 | 0.00 | 0.00 | 0.00 | 47 | 19.4 |
| 20260831130023 | 78 | 247 | 6.0 | 14.0 | 0.00 | 0.00 | 0.00 | 50 | 19.4 |
| 20260831125013 | 77 | 225 | 7.0 | 17.0 | 0.00 | 0.00 | 0.00 | 51 | 19.5 |
| 20260831124017 | 79 | 225 | 6.0 | 11.0 | 0.00 | 0.00 | 0.00 | 54 | 19.5 |
| 20260831123014 | 77 | 247 | 9.0 | 18.0 | 0.00 | 0.00 | 0.00 | 55 | 19.5 |
| 20260831122014 | 74 | 270 | 6.0 | 12.0 | 0.00 | 0.00 | 0.00 | 58 | 19.6 |
| 20260831121013 | 74 | 225 | 8.0 | 13.0 | 0.00 | 0.00 | 0.00 | 58 | 19.6 |
| 20260831120014 | 75 | 225 | 5.0 | 10.0 | 0.00 | 0.00 | 0.00 | 58 | 19.6 |
| 20260831114013 | 74 | 225 | 8.0 | 14.0 | 0.00 | 0.00 | 0.00 | 59 | 19.7 |
| 20260831113013 | 75 | 247 | 6.0 | 14.0 | 0.00 | 0.00 | 0.00 | 57 | 19.7 |
| 20260831112013 | 75 | 225 | 7.0 | 15.0 | 0.00 | 0.00 | 0.00 | 56 | 19.8 |
| 20260831110014 | 75 | 225 | 5.0 | 16.0 | 0.00 | 0.00 | 0.00 | 58 | 19.8 |
| 20260831105013 | 75 | 225 | 6.0 | 15.0 | 0.00 | 0.00 | 0.00 | 58 | 19.8 |
| 20260831103013 | 71 | 225 | 6.0 | 13.0 | 0.00 | 0.00 | 0.00 | 64 | 20.0 |
| 20260831102013 | 72 | 270 | 7.0 | 16.0 | 0.00 | 0.00 | 0.00 | 63 | 20.1 |
| 20260831101013 | 72 | 247 | 7.0 | 12.0 | 0.00 | 0.00 | 0.00 | 65 | 20.1 |
| 20260831100014 | 72 | 247 | 5.0 | 9.0 | 0.00 | 0.00 | 0.00 | 65 | 20.0 |
| 20260831094013 | 71 | 225 | 3.0 | 8.0 | 0.00 | 0.00 | 0.00 | 67 | 20.2 |
| 20260831093013 | 71 | 247 | 4.0 | 8.0 | 0.00 | 0.00 | 0.00 | 67 | 20.2 |
| 20260831092013 | 70 | 225 | 6.0 | 12.0 | 0.00 | 0.00 | 0.00 | 66 | 20.1 |
| 20260831091013 | 71 | 225 | 5.0 | 9.0 | 0.00 | 0.00 | 0.00 | 66 | 20.0 |
| 20260831090013 | 71 | 225 | 5.0 | 10.0 | 0.00 | 0.00 | 0.00 | 66 | 20.0 |
| 20260831085013 | 71 | 225 | 2.0 | 8.0 | 0.00 | 0.00 | 0.00 | 67 | 19.9 |
| 20260831083013 | 72 | 180 | 2.0 | 9.0 | 0.00 | 0.00 | 0.00 | 64 | 19.7 |
| 20260831082013 | 71 | 180 | 2.0 | 6.0 | 0.00 | 0.00 | 0.00 | 64 | 19.6 |
| 20260831075013 | 68 | 225 | 6.0 | 10.0 | 0.00 | 0.00 | 0.00 | 71 | 19.5 |
| 20260831074013 | 67 | 225 | 5.0 | 11.0 | 0.00 | 0.00 | 0.00 | 75 | 19.5 |
| 20260831073013 | 67 | 202 | 3.0 | 7.0 | 0.00 | 0.00 | 0.00 | 75 | 19.5 |
| 20260831072013 | 67 | 202 | 1.0 | 4.0 | 0.00 | 0.00 | 0.00 | 80 | 19.5 |
| 20260831071017 | 66 | 157 | 1.0 | 5.0 | 0.00 | 0.00 | 0.00 | 81 | 19.5 |
| 20260831070013 | 65 | 180 | 2.0 | 6.0 | 0.00 | 0.00 | 0.00 | 82 | 19.4 |
| 20260831065016 | 65 | 180 | 1.0 | 4.0 | 0.00 | 0.00 | 0.00 | 83 | 19.4 |
| 20260831063013 | 64 | 225 | 0.0 | 2.0 | 0.00 | 0.00 | 0.00 | 83 | 19.2 |
| 20260831062013 | 64 | 0 | 0.0 | 0.0 | 0.00 | 0.00 | 0.00 | 84 | 19.1 |
| 20260831061013 | 63 | 0 | 0.0 | 0.0 | 0.00 | 0.00 | 0.00 | 85 | 19.0 |
| 20260831060013 | 62 | 180 | 0.0 | 4.0 | 0.00 | 0.00 | 0.00 | 87 | 19.0 |
| 20260831055013 | 62 | 247 | 0.0 | 2.0 | 0.00 | 0.00 | 0.00 | 87 | 18.9 |
| 20260831054013 | 61 | 0 | 0.0 | 0.0 | 0.00 | 0.00 | 0.00 | 88 | 18.8 |
| 20260831053012 | 61 | 247 | 1.0 | 3.0 | 0.00 | 0.00 | 0.00 | 88 | 18.6 |
| 20260831051012 | 61 | 225 | 4.0 | 8.0 | 0.00 | 0.00 | 0.00 | 88 | 18.5 |
| 20260831044012 | 62 | 247 | 5.0 | 9.0 | 0.00 | 0.00 | 0.00 | 89 | 18.3 |
| 20260831043012 | 62 | 225 | 5.0 | 8.0 | 0.00 | 0.00 | 0.00 | 89 | 18.3 |
| 20260831042012 | 62 | 225 | 5.0 | 10.0 | 0.00 | 0.00 | 0.00 | 89 | 18.3 |
| 20260831040013 | 62 | 225 | 3.0 | 6.0 | 0.00 | 0.00 | 0.00 | 89 | 18.4 |
| 20260831035012 | 62 | 225 | 4.0 | 6.0 | 0.00 | 0.00 | 0.00 | 89 | 18.4 |
| 20260831034012 | 62 | 247 | 1.0 | 3.0 | 0.00 | 0.00 | 0.00 | 89 | 18.5 |
| 20260831033012 | 62 | 247 | 3.0 | 6.0 | 0.00 | 0.00 | 0.00 | 88 | 18.4 |
| 20260831032012 | 63 | 247 | 3.0 | 5.0 | 0.00 | 0.00 | 0.00 | 88 | 18.4 |
| 20260831031012 | 64 | 247 | 3.0 | 9.0 | 0.00 | 0.00 | 0.00 | 87 | 18.4 |
| 20260831030013 | 64 | 247 | 4.0 | 10.0 | 0.00 | 0.00 | 0.00 | 87 | 18.4 |
| 20260831024012 | 64 | 225 | 4.0 | 11.0 | 0.00 | 0.00 | 0.00 | 87 | 18.3 |
| 20260831023012 | 64 | 225 | 6.0 | 11.0 | 0.00 | 0.00 | 0.00 | 88 | 18.1 |
| 20260831022012 | 64 | 225 | 4.0 | 8.0 | 0.00 | 0.00 | 0.00 | 88 | 18.0 |
| 20260831021012 | 64 | 225 | 6.0 | 11.0 | 0.00 | 0.00 | 0.00 | 88 | 17.9 |
| 20260831020013 | 64 | 225 | 4.0 | 8.0 | 0.00 | 0.00 | 0.00 | 88 | 17.8 |
| 20260831015012 | 64 | 225 | 3.0 | 8.0 | 0.00 | 0.00 | 0.00 | 88 | 17.8 |
| 20260831013012 | 64 | 225 | 4.0 | 8.0 | 0.00 | 0.00 | 0.00 | 89 | 17.6 |
| 20260831012012 | 63 | 225 | 1.0 | 5.0 | 0.00 | 0.00 | 0.00 | 90 | 17.5 |
| 20260831011012 | 63 | 225 | 0.0 | 3.0 | 0.00 | 0.00 | 0.00 | 90 | 17.5 |
| 20260831010013 | 63 | 225 | 0.0 | 4.0 | 0.00 | 0.00 | 0.00 | 90 | 17.5 |
| 20260831005012 | 63 | 225 | 2.0 | 5.0 | 0.00 | 0.00 | 0.00 | 89 | 17.4 |
| 20260831004012 | 63 | 225 | 1.0 | 4.0 | 0.00 | 0.00 | 0.00 | 89 | 17.3 |
| 20260831003012 | 64 | 225 | 1.0 | 5.0 | 0.00 | 0.00 | 0.00 | 89 | 17.3 |
| 20260831002013 | 63 | 225 | 0.0 | 2.0 | 0.00 | 0.00 | 0.00 | 89 | 17.2 |
| 20260831000014 | 64 | 247 | 1.0 | 4.0 | 0.00 | 0.00 | 0.00 | 89 | 17.1 |
| 20260830235012 | 64 | 247 | 0.0 | 2.0 | 0.00 | 0.00 | 0.00 | 90 | 17.1 |
| 20260830233012 | 64 | 247 | 1.0 | 4.0 | 0.00 | 0.00 | 0.00 | 90 | 16.9 |
| 20260830232012 | 64 | 0 | 0.0 | 0.0 | 0.00 | 0.00 | 0.00 | 90 | 16.9 |
| 20260830231012 | 65 | 247 | 1.0 | 5.0 | 0.00 | 0.00 | 0.00 | 89 | 16.9 |
| 20260830230012 | 65 | 247 | 1.0 | 6.0 | 0.00 | 0.00 | 0.00 | 89 | 16.8 |
| 20260830224012 | 65 | 225 | 1.0 | 4.0 | 0.00 | 0.00 | 0.00 | 89 | 16.8 |
| 20260830223012 | 65 | 225 | 3.0 | 8.0 | 0.00 | 0.00 | 0.00 | 89 | 16.8 |
| 20260830222012 | 66 | 247 | 3.0 | 8.0 | 0.00 | 0.00 | 0.00 | 90 | 16.5 |
| 20260830221012 | 66 | 270 | 4.0 | 8.0 | 0.00 | 0.00 | 0.00 | 90 | 16.3 |
| 20260830215012 | 66 | 247 | 4.0 | 8.0 | 0.00 | 0.01 | 0.01 | 91 | 15.9 |
| 20260830214013 | 66 | 247 | 5.0 | 11.0 | 0.00 | 0.01 | 0.01 | 91 | 15.8 |
| 20260830212017 | 66 | 247 | 3.0 | 9.0 | 0.00 | 0.01 | 0.01 | 90 | 15.5 |
| 20260830211015 | 66 | 225 | 4.0 | 8.0 | 0.00 | 0.01 | 0.01 | 89 | 15.5 |
| 20260830210012 | 66 | 225 | 4.0 | 7.0 | 0.01 | 0.01 | 0.01 | 89 | 15.3 |
| 20260830205012 | 67 | 247 | 4.0 | 8.0 | 0.01 | 0.01 | 0.01 | 89 | 15.0 |
| 20260830204012 | 67 | 270 | 3.0 | 8.0 | 0.01 | 0.01 | 0.01 | 89 | 14.6 |
| 20260830203012 | 68 | 225 | 1.0 | 3.0 | 0.01 | 0.01 | 0.01 | 88 | 14.1 |
| 20260830202012 | 69 | 270 | 8.0 | 13.0 | 0.01 | 0.01 | 0.01 | 86 | 14.8 |
| 20260830201012 | 68 | 225 | 7.0 | 14.0 | 0.01 | 0.01 | 0.01 | 90 | 15.1 |
| 20260830200013 | 68 | 0 | 0.0 | 0.0 | 0.00 | 0.00 | 0.00 | 90 | 13.6 |
| 20260830195012 | 68 | 0 | 0.0 | 0.0 | 0.00 | 0.00 | 0.00 | 90 | 13.4 |
| 20260830194012 | 69 | 0 | 0.0 | 0.0 | 0.00 | 0.00 | 0.00 | 88 | 13.5 |
| 20260830193011 | 69 | 270 | 0.0 | 3.0 | 0.00 | 0.00 | 0.00 | 87 | 13.5 |
| 20260830192011 | 70 | 270 | 1.0 | 6.0 | 0.00 | 0.00 | 0.00 | 86 | 13.4 |
| 20260830191015 | 70 | 0 | 0.0 | 0.0 | 0.00 | 0.00 | 0.00 | 84 | 13.1 |
| 20260830190012 | 72 | 270 | 1.0 | 5.0 | 0.00 | 0.00 | 0.00 | 80 | 13.1 |
| 20260830185011 | 74 | 270 | 3.0 | 7.0 | 0.00 | 0.00 | 0.00 | 74 | 13.3 |
| 20260830184011 | 75 | 45 | 2.0 | 4.0 | 0.00 | 0.00 | 0.00 | 72 | 12.9 |
| 20260830183012 | 75 | 0 | 0.0 | 0.0 | 0.00 | 0.00 | 0.00 | 68 | 12.4 |